,,,PA_Meas_PMT16A,,PR_Meas_QMR101_102,,RH_Meas_QMH101,,SR_Meas_QMS101,,TA_Meas_QMH101,,GenWind,,GenWind,
date,time,status,PA,status,PR,status,RH,status,SR,status,TA,status,DirAvg,status,SpdAvg,
2008-07-06, 00:00:04,VALID,1011.33,VALID,0,VALID,92.8893,VALID,0,VALID,23.0316,VALID,230,VALID,0,
2008-07-06, 00:01:04,VALID,1011.33,VALID,0,VALID,92.8817,VALID,0,VALID,23.0705,VALID,230,VALID,0,
2008-07-06, 00:02:04,VALID,1011.34,VALID,0,VALID,92.9198,VALID,0,VALID,23.0705,VALID,230,VALID,0.273828,
2008-07-06, 00:03:04,VALID,1011.34,VALID,0,VALID,92.8436,VALID,0,VALID,23.0705,VALID,230,VALID,0.296484,
2008-07-06, 00:04:04,VALID,1011.33,VALID,0,VALID,92.8359,VALID,0,VALID,23.0705,VALID,230,VALID,0.301172,
2008-07-06, 00:05:04,VALID,1011.36,VALID,0,VALID,92.8893,VALID,0,VALID,23.0705,VALID,230,VALID,0.170703,
2008-07-06, 00:06:04,VALID,1011.34,VALID,0,VALID,92.8359,VALID,0,VALID,23.0316,VALID,230,VALID,0,
2008-07-06, 00:07:04,VALID,1011.35,VALID,0,VALID,92.8512,VALID,0,VALID,23.0316,VALID,230,VALID,0,
2008-07-06, 00:08:04,VALID,1011.34,VALID,0,VALID,93.0113,VALID,0,VALID,23.0316,VALID,230,VALID,0,
2008-07-06, 00:09:04,VALID,1011.34,VALID,0,VALID,93.0266,VALID,0,VALID,23.0333,VALID,230,VALID,0,
2008-07-06, 00:10:04,VALID,1011.36,VALID,0,VALID,93.0494,VALID,0,VALID,23.0121,VALID,230,VALID,0,
2008-07-06, 00:11:04,VALID,1011.34,VALID,0,VALID,93.1486,VALID,0,VALID,22.9731,VALID,230,VALID,0.00546875,
2008-07-06, 00:12:04,VALID,1011.31,VALID,0,VALID,93.2096,VALID,0,VALID,22.9731,VALID,230,VALID,0,
2008-07-06, 00:13:04,VALID,1011.31,VALID,0,VALID,93.1867,VALID,0,VALID,22.9536,VALID,230,VALID,0,
2008-07-06, 00:14:04,VALID,1011.29,VALID,0,VALID,93.2096,VALID,0.105969,VALID,22.9324,VALID,230,VALID,0,
2008-07-06, 00:15:04,VALID,1011.26,VALID,0,VALID,93.2553,VALID,0.105969,VALID,22.9324,VALID,230,VALID,0,
2008-07-06, 00:16:04,VALID,1011.24,VALID,0,VALID,93.2782,VALID,0.105969,VALID,22.9129,VALID,230,VALID,0,
2008-07-06, 00:17:04,VALID,1011.24,VALID,0,VALID,93.4384,VALID,0.105969,VALID,22.9129,VALID,230,VALID,0.180859,
2008-07-06, 00:18:04,VALID,1011.22,VALID,0,VALID,93.5146,VALID,0.105969,VALID,22.8935,VALID,230,VALID,0.166797,
2008-07-06, 00:19:04,VALID,1011.19,VALID,0,VALID,93.5451,VALID,0.105969,VALID,22.874,VALID,230,VALID,0.284375,
2008-07-06, 00:20:04,VALID,1011.18,VALID,0,VALID,93.5527,VALID,0.105969,VALID,22.8545,VALID,230,VALID,0.287109,
2008-07-06, 00:21:04,VALID,1011.15,VALID,0,VALID,93.5909,VALID,0.105969,VALID,22.8545,VALID,230,VALID,0.334375,
2008-07-06, 00:22:04,VALID,1011.13,VALID,0,VALID,93.6595,VALID,0.105969,VALID,22.835,VALID,230,VALID,0.347656,
2008-07-06, 00:23:04,VALID,1011.1,VALID,0,VALID,93.6824,VALID,0.105969,VALID,22.8138,VALID,230,VALID,0.174219,
2008-07-06, 00:24:04,VALID,1011.08,VALID,0,VALID,93.7129,VALID,0.105969,VALID,22.8155,VALID,230,VALID,0.259375,
2008-07-06, 00:25:04,VALID,1011.08,VALID,0,VALID,93.7586,VALID,0.105969,VALID,22.8368,VALID,229,VALID,0.270312,
2008-07-06, 00:26:04,VALID,1011.03,VALID,0,VALID,93.8502,VALID,0.105969,VALID,22.835,VALID,187,VALID,0.401172,
2008-07-06, 00:27:04,VALID,1011.01,VALID,0,VALID,93.8807,VALID,0.105969,VALID,22.835,VALID,150,VALID,0.181641,
2008-07-06, 00:28:04,VALID,1010.99,VALID,0,VALID,93.9112,VALID,0.105969,VALID,22.8545,VALID,150,VALID,0.175391,
2008-07-06, 00:29:04,VALID,1010.98,VALID,0,VALID,93.9645,VALID,0,VALID,22.8562,VALID,150,VALID,0.350391,
2008-07-06, 00:30:04,VALID,1011.01,VALID,0,VALID,93.9722,VALID,0,VALID,22.8757,VALID,150,VALID,0.249609,
2008-07-06, 00:31:04,VALID,1010.97,VALID,0,VALID,93.8959,VALID,0,VALID,22.8952,VALID,150,VALID,0.182812,
2008-07-06, 00:32:04,VALID,1010.96,VALID,0,VALID,93.9035,VALID,0,VALID,22.8952,VALID,150,VALID,0.126172,
2008-07-06, 00:33:04,VALID,1010.97,VALID,0,VALID,93.934,VALID,0,VALID,22.9147,VALID,150,VALID,0,
2008-07-06, 00:34:04,VALID,1010.94,VALID,0,VALID,93.8883,VALID,0,VALID,22.8952,VALID,150,VALID,0.00117188,
2008-07-06, 00:35:04,VALID,1010.92,VALID,0,VALID,93.873,VALID,0,VALID,22.8952,VALID,150,VALID,0.15625,
2008-07-06, 00:36:04,VALID,1010.92,VALID,0,VALID,93.812,VALID,0,VALID,22.8952,VALID,79,VALID,0.317969,
2008-07-06, 00:37:04,VALID,1010.91,VALID,0,VALID,93.7815,VALID,0,VALID,22.8969,VALID,24,VALID,0.477344,
2008-07-06, 00:38:04,VALID,1010.89,VALID,0,VALID,93.7891,VALID,0,VALID,22.8952,VALID,24,VALID,0.295312,
2008-07-06, 00:39:04,VALID,1010.91,VALID,0,VALID,93.7663,VALID,0,VALID,22.9164,VALID,24,VALID,0.187109,
2008-07-06, 00:40:04,VALID,1010.89,VALID,0,VALID,93.7281,VALID,0,VALID,22.8952,VALID,24,VALID,0.150781,
2008-07-06, 00:41:04,VALID,1010.91,VALID,0,VALID,93.7053,VALID,0,VALID,22.8757,VALID,24,VALID,0.103125,
2008-07-06, 00:42:04,VALID,1010.88,VALID,0,VALID,93.6824,VALID,0,VALID,22.8562,VALID,24,VALID,0.271094,
2008-07-06, 00:43:04,VALID,1010.87,VALID,0,VALID,93.6442,VALID,0,VALID,22.8562,VALID,24,VALID,0.214062,
2008-07-06, 00:44:04,VALID,1010.87,VALID,0,VALID,93.6748,VALID,0,VALID,22.8173,VALID,24,VALID,0.130859,
2008-07-06, 00:45:04,VALID,1010.84,VALID,0,VALID,93.7358,VALID,0,VALID,22.7978,VALID,24,VALID,0.160547,
2008-07-06, 00:46:04,VALID,1010.83,VALID,0,VALID,93.751,VALID,0,VALID,22.7783,VALID,24,VALID,0.025,
2008-07-06, 00:47:04,VALID,1010.82,VALID,0,VALID,93.7815,VALID,0,VALID,22.7783,VALID,24,VALID,0,
2008-07-06, 00:48:04,VALID,1010.82,VALID,0,VALID,93.751,VALID,0,VALID,22.7394,VALID,24,VALID,0,
2008-07-06, 00:49:04,VALID,1010.79,VALID,0,VALID,93.8196,VALID,0,VALID,22.7606,VALID,24,VALID,0.195703,
2008-07-06, 00:50:04,VALID,1010.75,VALID,0,VALID,93.8959,VALID,0,VALID,22.7004,VALID,24,VALID,0.249609,
2008-07-06, 00:51:04,VALID,1010.71,VALID,0,VALID,93.9264,VALID,0,VALID,22.6809,VALID,24,VALID,0.127344,
2008-07-06, 00:52:04,VALID,1010.68,VALID,0,VALID,93.9874,VALID,0,VALID,22.6632,VALID,24,VALID,0.210156,
2008-07-06, 00:53:04,VALID,1010.67,VALID,0,VALID,94.0637,VALID,0,VALID,22.6826,VALID,24,VALID,0.285547,
2008-07-06, 00:54:04,VALID,1010.61,VALID,0,VALID,94.1552,VALID,0,VALID,22.6826,VALID,25,VALID,0.154297,
2008-07-06, 00:55:04,VALID,1010.6,VALID,0,VALID,94.2543,VALID,0,VALID,22.6614,VALID,65,VALID,0.416016,
2008-07-06, 00:56:04,VALID,1010.6,VALID,0,VALID,94.3611,VALID,0,VALID,22.6809,VALID,66,VALID,0.5,
2008-07-06, 00:57:04,VALID,1010.56,VALID,0,VALID,94.4373,VALID,0,VALID,22.6809,VALID,91,VALID,0.707031,
2008-07-06, 00:58:04,VALID,1010.55,VALID,0,VALID,94.4526,VALID,0,VALID,22.7199,VALID,91,VALID,0.382031,
2008-07-06, 00:59:04,VALID,1010.51,VALID,0,VALID,94.3992,VALID,0,VALID,22.7004,VALID,91,VALID,0.500781,
2008-07-06, 01:00:04,VALID,1010.52,VALID,0,VALID,94.4068,VALID,0,VALID,22.7394,VALID,88,VALID,0.536719,
2008-07-06, 01:01:04,VALID,1010.54,VALID,0,VALID,94.3382,VALID,0,VALID,22.7588,VALID,86,VALID,0.354297,
2008-07-06, 01:02:04,VALID,1010.51,VALID,0,VALID,94.2696,VALID,0,VALID,22.7606,VALID,81,VALID,0.470313,
2008-07-06, 01:03:04,VALID,1010.51,VALID,0,VALID,94.2314,VALID,0,VALID,22.7394,VALID,71,VALID,0.399219,
2008-07-06, 01:04:04,VALID,1010.5,VALID,0,VALID,94.1552,VALID,0,VALID,22.7199,VALID,66,VALID,0.329297,
2008-07-06, 01:05:04,VALID,1010.47,VALID,0,VALID,94.0713,VALID,0,VALID,22.7004,VALID,66,VALID,0.377344,
2008-07-06, 01:06:04,VALID,1010.45,VALID,0,VALID,94.2162,VALID,0,VALID,22.7216,VALID,33,VALID,0.259375,
2008-07-06, 01:07:04,VALID,1010.41,VALID,0,VALID,94.0942,VALID,0,VALID,22.7021,VALID,33,VALID,0.323047,
2008-07-06, 01:08:04,VALID,1010.46,VALID,0,VALID,94.1628,VALID,0,VALID,22.7004,VALID,35,VALID,0.332812,
2008-07-06, 01:09:04,VALID,1010.42,VALID,0,VALID,94.2238,VALID,0,VALID,22.6809,VALID,35,VALID,0.319531,
2008-07-06, 01:10:04,VALID,1010.41,VALID,0,VALID,94.1247,VALID,0,VALID,22.6614,VALID,37,VALID,0.44375,
2008-07-06, 01:11:04,VALID,1010.41,VALID,0,VALID,94.1781,VALID,0,VALID,22.6437,VALID,57,VALID,0.348437,
2008-07-06, 01:12:04,VALID,1010.36,VALID,0,VALID,94.2238,VALID,0,VALID,22.603,VALID,57,VALID,0.0222656,
2008-07-06, 01:13:04,VALID,1010.38,VALID,0,VALID,94.2543,VALID,0.105969,VALID,22.603,VALID,57,VALID,0,
2008-07-06, 01:14:04,VALID,1010.35,VALID,0,VALID,94.2467,VALID,0,VALID,22.5835,VALID,57,VALID,0,
2008-07-06, 01:15:04,VALID,1010.34,VALID,0,VALID,94.2543,VALID,0,VALID,22.564,VALID,57,VALID,0,
2008-07-06, 01:16:04,VALID,1010.35,VALID,0,VALID,94.2543,VALID,0,VALID,22.5446,VALID,57,VALID,0,
2008-07-06, 01:17:04,VALID,1010.34,VALID,0,VALID,94.3382,VALID,0,VALID,22.5446,VALID,57,VALID,0,
2008-07-06, 01:18:04,VALID,1010.33,VALID,0,VALID,94.3839,VALID,0,VALID,22.5446,VALID,57,VALID,0,
2008-07-06, 01:19:04,VALID,1010.31,VALID,0,VALID,94.3839,VALID,0,VALID,22.5056,VALID,57,VALID,0.173828,
2008-07-06, 01:20:04,VALID,1010.3,VALID,0,VALID,94.4831,VALID,0,VALID,22.5251,VALID,57,VALID,0,
2008-07-06, 01:21:04,VALID,1010.28,VALID,0,VALID,94.5441,VALID,0,VALID,22.5446,VALID,57,VALID,0,
2008-07-06, 01:22:04,VALID,1010.29,VALID,0,VALID,94.506,VALID,0,VALID,22.5056,VALID,57,VALID,0,
2008-07-06, 01:23:04,VALID,1010.25,VALID,0,VALID,94.567,VALID,0,VALID,22.5056,VALID,57,VALID,0,
2008-07-06, 01:24:04,VALID,1010.25,VALID,0,VALID,94.6127,VALID,0,VALID,22.5251,VALID,57,VALID,0,
2008-07-06, 01:25:04,VALID,1010.24,VALID,0,VALID,94.6585,VALID,0,VALID,22.5251,VALID,57,VALID,0,
2008-07-06, 01:26:04,VALID,1010.21,VALID,0,VALID,94.7119,VALID,0,VALID,22.5446,VALID,57,VALID,0,
2008-07-06, 01:27:04,VALID,1010.23,VALID,0,VALID,94.7424,VALID,0,VALID,22.5251,VALID,57,VALID,0,
2008-07-06, 01:28:04,VALID,1010.23,VALID,0,VALID,94.7424,VALID,0,VALID,22.5251,VALID,57,VALID,0,
2008-07-06, 01:29:04,VALID,1010.2,VALID,0,VALID,94.7195,VALID,0,VALID,22.5251,VALID,57,VALID,0,
2008-07-06, 01:30:04,VALID,1010.2,VALID,0,VALID,94.6966,VALID,0,VALID,22.5251,VALID,57,VALID,0,
2008-07-06, 01:31:04,VALID,1010.2,VALID,0,VALID,94.689,VALID,0,VALID,22.5056,VALID,57,VALID,0,
2008-07-06, 01:32:04,VALID,1010.19,VALID,0,VALID,94.6508,VALID,0,VALID,22.4861,VALID,95,VALID,0.364062,
2008-07-06, 01:33:04,VALID,1010.2,VALID,0,VALID,94.6203,VALID,0,VALID,22.4861,VALID,144,VALID,0.416797,
2008-07-06, 01:34:04,VALID,1010.19,VALID,0,VALID,94.6661,VALID,0,VALID,22.4861,VALID,145,VALID,0.465234,
2008-07-06, 01:35:04,VALID,1010.17,VALID,0,VALID,94.7424,VALID,0,VALID,22.5056,VALID,145,VALID,0.310937,
2008-07-06, 01:36:04,VALID,1010.14,VALID,0,VALID,94.7729,VALID,0,VALID,22.4861,VALID,145,VALID,0,
2008-07-06, 01:37:04,VALID,1010.14,VALID,0,VALID,94.7424,VALID,0,VALID,22.4667,VALID,145,VALID,0.0328125,
2008-07-06, 01:38:04,VALID,1010.12,VALID,0,VALID,94.7119,VALID,0,VALID,22.4878,VALID,145,VALID,0,
2008-07-06, 01:39:04,VALID,1010.08,VALID,0,VALID,94.6814,VALID,0,VALID,22.4684,VALID,145,VALID,0,
2008-07-06, 01:40:04,VALID,1010.1,VALID,0,VALID,94.6737,VALID,0,VALID,22.4082,VALID,145,VALID,0,
2008-07-06, 01:41:04,VALID,1010.08,VALID,0,VALID,94.6737,VALID,0,VALID,22.3693,VALID,145,VALID,0,
2008-07-06, 01:42:04,VALID,1010.06,VALID,0,VALID,94.6966,VALID,0,VALID,22.3887,VALID,145,VALID,0,
2008-07-06, 01:43:04,VALID,1010.07,VALID,0,VALID,94.689,VALID,0,VALID,22.3693,VALID,145,VALID,0,
2008-07-06, 01:44:04,VALID,1010.03,VALID,0,VALID,94.689,VALID,0,VALID,22.371,VALID,145,VALID,0,
2008-07-06, 01:45:04,VALID,1010.05,VALID,0,VALID,94.7195,VALID,0,VALID,22.3498,VALID,145,VALID,0,
2008-07-06, 01:46:04,VALID,1010.07,VALID,0,VALID,94.7881,VALID,0,VALID,22.3693,VALID,145,VALID,0.207422,
2008-07-06, 01:47:04,VALID,1010.05,VALID,0,VALID,94.8034,VALID,0,VALID,22.3303,VALID,145,VALID,0.289063,
2008-07-06, 01:48:04,VALID,1010.05,VALID,0,VALID,94.8339,VALID,0,VALID,22.371,VALID,145,VALID,0.247266,
2008-07-06, 01:49:04,VALID,1010.05,VALID,0,VALID,94.8186,VALID,0,VALID,22.3303,VALID,145,VALID,0.2625,
2008-07-06, 01:50:04,VALID,1010.06,VALID,0,VALID,94.9025,VALID,0,VALID,22.3498,VALID,144,VALID,0.281641,
2008-07-06, 01:51:04,VALID,1010.06,VALID,0,VALID,94.9788,VALID,0,VALID,22.4294,VALID,116,VALID,0.483984,
2008-07-06, 01:52:04,VALID,1010.05,VALID,0,VALID,94.9711,VALID,0,VALID,22.3693,VALID,116,VALID,0.160156,
2008-07-06, 01:53:04,VALID,1010.05,VALID,0,VALID,95.0779,VALID,0,VALID,22.3887,VALID,116,VALID,0.256641,
2008-07-06, 01:54:04,VALID,1010.05,VALID,0,VALID,95.0931,VALID,0,VALID,22.4277,VALID,115,VALID,0.289844,
2008-07-06, 01:55:04,VALID,1010.04,VALID,0,VALID,95.0931,VALID,0,VALID,22.4277,VALID,78,VALID,0.577344,
2008-07-06, 01:56:04,VALID,1010.03,VALID,0,VALID,95.1389,VALID,0,VALID,22.4861,VALID,56,VALID,0.65,
2008-07-06, 01:57:04,VALID,1010.02,VALID,0,VALID,95.0703,VALID,0,VALID,22.4667,VALID,73,VALID,0.343359,
2008-07-06, 01:58:04,VALID,1010.06,VALID,0,VALID,95.0169,VALID,0,VALID,22.4861,VALID,72,VALID,0.430078,
2008-07-06, 01:59:04,VALID,1010.02,VALID,0,VALID,94.9559,VALID,0.105969,VALID,22.5056,VALID,72,VALID,0.345703,
2008-07-06, 02:00:04,VALID,1010.01,VALID,0,VALID,94.9559,VALID,0.105969,VALID,22.5251,VALID,74,VALID,0.318359,
2008-07-06, 02:01:04,VALID,1009.96,VALID,0,VALID,94.8949,VALID,0.105969,VALID,22.5056,VALID,74,VALID,0.239453,
2008-07-06, 02:02:04,VALID,1009.97,VALID,0,VALID,94.8415,VALID,0.105969,VALID,22.4844,VALID,74,VALID,0.294141,
2008-07-06, 02:03:04,VALID,1009.95,VALID,0,VALID,94.8262,VALID,0,VALID,22.4844,VALID,74,VALID,0.185937,
2008-07-06, 02:04:04,VALID,1009.94,VALID,0,VALID,94.7576,VALID,0,VALID,22.4667,VALID,74,VALID,0.116797,
2008-07-06, 02:05:04,VALID,1009.9,VALID,0,VALID,94.6737,VALID,0.105969,VALID,22.4667,VALID,74,VALID,0,
2008-07-06, 02:06:04,VALID,1009.87,VALID,0,VALID,94.6737,VALID,0,VALID,22.4472,VALID,74,VALID,0,
2008-07-06, 02:07:04,VALID,1009.86,VALID,0,VALID,94.6051,VALID,0,VALID,22.4277,VALID,74,VALID,0,
2008-07-06, 02:08:04,VALID,1009.83,VALID,0,VALID,94.567,VALID,0,VALID,22.3693,VALID,74,VALID,0,
2008-07-06, 02:09:04,VALID,1009.83,VALID,0,VALID,94.5593,VALID,0,VALID,22.3887,VALID,74,VALID,0,
2008-07-06, 02:10:04,VALID,1009.78,VALID,0,VALID,94.6356,VALID,0.105969,VALID,22.387,VALID,74,VALID,0,
2008-07-06, 02:11:04,VALID,1009.76,VALID,0,VALID,94.7195,VALID,0.105969,VALID,22.387,VALID,74,VALID,0,
2008-07-06, 02:12:04,VALID,1009.79,VALID,0,VALID,94.8034,VALID,0.105969,VALID,22.4065,VALID,74,VALID,0,
2008-07-06, 02:13:04,VALID,1009.79,VALID,0,VALID,94.8339,VALID,0.105969,VALID,22.387,VALID,74,VALID,0,
2008-07-06, 02:14:04,VALID,1009.79,VALID,0,VALID,94.8568,VALID,0,VALID,22.4099,VALID,74,VALID,0,
2008-07-06, 02:15:04,VALID,1009.79,VALID,0,VALID,94.9406,VALID,0,VALID,22.3887,VALID,74,VALID,0.0328125,
2008-07-06, 02:16:04,VALID,1009.79,VALID,0,VALID,94.933,VALID,0,VALID,22.3887,VALID,74,VALID,0,
2008-07-06, 02:17:04,VALID,1009.8,VALID,0,VALID,94.8796,VALID,0,VALID,22.4099,VALID,74,VALID,0,
2008-07-06, 02:18:04,VALID,1009.8,VALID,0,VALID,94.8644,VALID,0,VALID,22.4082,VALID,74,VALID,0,
2008-07-06, 02:19:04,VALID,1009.78,VALID,0,VALID,94.7957,VALID,0,VALID,22.3693,VALID,74,VALID,0,
2008-07-06, 02:20:04,VALID,1009.78,VALID,0,VALID,94.7195,VALID,0,VALID,22.3498,VALID,74,VALID,0,
2008-07-06, 02:21:04,VALID,1009.76,VALID,0,VALID,94.6508,VALID,0,VALID,22.3498,VALID,74,VALID,0,
2008-07-06, 02:22:04,VALID,1009.77,VALID,0,VALID,94.628,VALID,0,VALID,22.3515,VALID,74,VALID,0,
2008-07-06, 02:23:04,VALID,1009.76,VALID,0,VALID,94.5746,VALID,0,VALID,22.332,VALID,74,VALID,0,
2008-07-06, 02:24:04,VALID,1009.76,VALID,0,VALID,94.5898,VALID,0,VALID,22.3108,VALID,74,VALID,0,
2008-07-06, 02:25:04,VALID,1009.77,VALID,0,VALID,94.5898,VALID,0,VALID,22.2914,VALID,74,VALID,0,
2008-07-06, 02:26:04,VALID,1009.78,VALID,0,VALID,94.628,VALID,0,VALID,22.3125,VALID,74,VALID,0,
2008-07-06, 02:27:04,VALID,1009.79,VALID,0,VALID,94.6508,VALID,0,VALID,22.332,VALID,32,VALID,0,
2008-07-06, 02:28:04,VALID,1009.82,VALID,0,VALID,94.8034,VALID,0,VALID,22.3108,VALID,13,VALID,0,
2008-07-06, 02:29:04,VALID,1009.81,VALID,0,VALID,94.9254,VALID,0,VALID,22.3303,VALID,11,VALID,0,
2008-07-06, 02:30:04,VALID,1009.81,VALID,0,VALID,94.9635,VALID,0,VALID,22.3693,VALID,11,VALID,0,
2008-07-06, 02:31:04,VALID,1009.79,VALID,0,VALID,94.9178,VALID,0,VALID,22.3693,VALID,11,VALID,0,
2008-07-06, 02:32:04,VALID,1009.77,VALID,0,VALID,94.8034,VALID,0,VALID,22.3498,VALID,11,VALID,0,
2008-07-06, 02:33:04,VALID,1009.73,VALID,0,VALID,94.6661,VALID,0,VALID,22.3108,VALID,11,VALID,0,
2008-07-06, 02:34:04,VALID,1009.71,VALID,0,VALID,94.6203,VALID,0,VALID,22.2914,VALID,11,VALID,0,
2008-07-06, 02:35:04,VALID,1009.7,VALID,0,VALID,94.5746,VALID,0,VALID,22.2736,VALID,83,VALID,0,
2008-07-06, 02:36:04,VALID,1009.67,VALID,0,VALID,94.5212,VALID,0,VALID,22.2346,VALID,83,VALID,0,
2008-07-06, 02:37:04,VALID,1009.66,VALID,0,VALID,94.5441,VALID,0,VALID,22.194,VALID,83,VALID,0,
2008-07-06, 02:38:04,VALID,1009.67,VALID,0,VALID,94.4983,VALID,0,VALID,22.1745,VALID,83,VALID,0,
2008-07-06, 02:39:04,VALID,1009.7,VALID,0,VALID,94.5517,VALID,0,VALID,22.1355,VALID,83,VALID,0,
2008-07-06, 02:40:04,VALID,1009.72,VALID,0,VALID,94.5898,VALID,0,VALID,22.1355,VALID,83,VALID,0,
2008-07-06, 02:41:04,VALID,1009.7,VALID,0,VALID,94.6127,VALID,0,VALID,22.1355,VALID,83,VALID,0,
2008-07-06, 02:42:04,VALID,1009.73,VALID,0,VALID,94.6432,VALID,0.105969,VALID,22.1161,VALID,83,VALID,0,
2008-07-06, 02:43:04,VALID,1009.72,VALID,0,VALID,94.7652,VALID,0,VALID,22.1161,VALID,83,VALID,0,
2008-07-06, 02:44:04,VALID,1009.73,VALID,0,VALID,94.9483,VALID,0,VALID,22.1355,VALID,83,VALID,0,
2008-07-06, 02:45:04,VALID,1009.73,VALID,0,VALID,94.9559,VALID,0,VALID,22.155,VALID,83,VALID,0,
2008-07-06, 02:46:04,VALID,1009.72,VALID,0,VALID,94.9101,VALID,0,VALID,22.1355,VALID,83,VALID,0,
2008-07-06, 02:47:04,VALID,1009.7,VALID,0,VALID,94.9101,VALID,0,VALID,22.1355,VALID,83,VALID,0,
2008-07-06, 02:48:04,VALID,1009.69,VALID,0,VALID,94.994,VALID,0,VALID,22.1355,VALID,83,VALID,0,
2008-07-06, 02:49:04,VALID,1009.68,VALID,0,VALID,95.0245,VALID,0,VALID,22.1728,VALID,83,VALID,0,
2008-07-06, 02:50:04,VALID,1009.67,VALID,0,VALID,95.0321,VALID,0,VALID,22.1355,VALID,83,VALID,0,
2008-07-06, 02:51:04,VALID,1009.64,VALID,0,VALID,94.9711,VALID,0,VALID,22.1177,VALID,83,VALID,0,
2008-07-06, 02:52:04,VALID,1009.64,VALID,0,VALID,94.9635,VALID,0,VALID,22.0771,VALID,83,VALID,0,
2008-07-06, 02:53:04,VALID,1009.61,VALID,0,VALID,94.9101,VALID,0,VALID,22.0187,VALID,83,VALID,0,
2008-07-06, 02:54:04,VALID,1009.61,VALID,0,VALID,94.8644,VALID,0,VALID,21.9992,VALID,83,VALID,0,
2008-07-06, 02:55:04,VALID,1009.63,VALID,0,VALID,94.9483,VALID,0,VALID,22.0187,VALID,83,VALID,0,
2008-07-06, 02:56:04,VALID,1009.65,VALID,0,VALID,94.9483,VALID,0,VALID,21.9992,VALID,83,VALID,0,
2008-07-06, 02:57:04,VALID,1009.61,VALID,0,VALID,94.994,VALID,0,VALID,21.9797,VALID,83,VALID,0,
2008-07-06, 02:58:04,VALID,1009.63,VALID,0,VALID,95.0169,VALID,0,VALID,21.9603,VALID,83,VALID,0,
2008-07-06, 02:59:04,VALID,1009.63,VALID,0,VALID,95.0321,VALID,0,VALID,21.9603,VALID,83,VALID,0,
2008-07-06, 03:00:04,VALID,1009.64,VALID,0,VALID,95.0626,VALID,0,VALID,21.9408,VALID,83,VALID,0,
2008-07-06, 03:01:04,VALID,1009.64,VALID,0,VALID,95.1008,VALID,0,VALID,21.9408,VALID,83,VALID,0,
2008-07-06, 03:02:04,VALID,1009.61,VALID,0,VALID,95.1389,VALID,0,VALID,21.9603,VALID,83,VALID,0,
2008-07-06, 03:03:04,VALID,1009.6,VALID,0,VALID,95.1465,VALID,0,VALID,21.9603,VALID,83,VALID,0,
2008-07-06, 03:04:04,VALID,1009.55,VALID,0,VALID,95.1847,VALID,0,VALID,21.9603,VALID,83,VALID,0,
2008-07-06, 03:05:04,VALID,1009.56,VALID,0,VALID,95.177,VALID,0,VALID,21.9408,VALID,83,VALID,0,
2008-07-06, 03:06:04,VALID,1009.56,VALID,0,VALID,95.2304,VALID,0,VALID,21.9797,VALID,83,VALID,0,
2008-07-06, 03:07:04,VALID,1009.55,VALID,0,VALID,95.2609,VALID,0.105969,VALID,22.0187,VALID,83,VALID,0,
2008-07-06, 03:08:04,VALID,1009.56,VALID,0,VALID,95.3524,VALID,0,VALID,22.0382,VALID,93,VALID,0,
2008-07-06, 03:09:04,VALID,1009.57,VALID,0,VALID,95.36,VALID,0,VALID,22.0771,VALID,103,VALID,0.403125,
2008-07-06, 03:10:04,VALID,1009.55,VALID,0,VALID,95.4439,VALID,0,VALID,22.1355,VALID,137,VALID,0.867188,
2008-07-06, 03:11:04,VALID,1009.54,VALID,0,VALID,95.5278,VALID,0,VALID,22.2329,VALID,122,VALID,0.934766,
2008-07-06, 03:12:04,VALID,1009.55,VALID,0,VALID,95.5354,VALID,0,VALID,22.2524,VALID,117,VALID,0.686328,
2008-07-06, 03:13:04,VALID,1009.52,VALID,0,VALID,95.5278,VALID,0,VALID,22.2719,VALID,126,VALID,0.882031,
2008-07-06, 03:14:04,VALID,1009.54,VALID,0,VALID,95.5354,VALID,0,VALID,22.332,VALID,113,VALID,0.802734,
2008-07-06, 03:15:04,VALID,1009.54,VALID,0,VALID,95.5049,VALID,0,VALID,22.3303,VALID,114,VALID,0.377344,
2008-07-06, 03:16:04,VALID,1009.55,VALID,0,VALID,95.4516,VALID,0,VALID,22.3498,VALID,114,VALID,0.126953,
2008-07-06, 03:17:04,VALID,1009.54,VALID,0,VALID,95.4211,VALID,0,VALID,22.3303,VALID,117,VALID,0.445703,
2008-07-06, 03:18:04,VALID,1009.55,VALID,0,VALID,95.3829,VALID,0,VALID,22.3693,VALID,117,VALID,0.253516,
2008-07-06, 03:19:04,VALID,1009.56,VALID,0,VALID,95.3067,VALID,0,VALID,22.3693,VALID,117,VALID,0.00273437,
2008-07-06, 03:20:04,VALID,1009.56,VALID,0,VALID,95.2457,VALID,0,VALID,22.371,VALID,117,VALID,0.000390625,
2008-07-06, 03:21:04,VALID,1009.54,VALID,0,VALID,95.1465,VALID,0,VALID,22.3498,VALID,72,VALID,0.520312,
2008-07-06, 03:22:04,VALID,1009.52,VALID,0,VALID,95.1084,VALID,0,VALID,22.3498,VALID,58,VALID,0.519922,
2008-07-06, 03:23:04,VALID,1009.51,VALID,0,VALID,94.994,VALID,0,VALID,22.3303,VALID,58,VALID,0.515625,
2008-07-06, 03:24:04,VALID,1009.51,VALID,0,VALID,94.8339,VALID,0.105969,VALID,22.2702,VALID,56,VALID,0.643359,
2008-07-06, 03:25:04,VALID,1009.49,VALID,0,VALID,94.811,VALID,0,VALID,22.2524,VALID,65,VALID,0.506641,
2008-07-06, 03:26:04,VALID,1009.5,VALID,0,VALID,94.7805,VALID,0,VALID,22.2541,VALID,80,VALID,0.502734,
2008-07-06, 03:27:04,VALID,1009.52,VALID,0,VALID,94.7652,VALID,0,VALID,22.2329,VALID,80,VALID,0.362891,
2008-07-06, 03:28:04,VALID,1009.53,VALID,0,VALID,94.7805,VALID,0,VALID,22.2346,VALID,80,VALID,0.250781,
2008-07-06, 03:29:04,VALID,1009.56,VALID,0,VALID,94.8034,VALID,0.105969,VALID,22.2134,VALID,80,VALID,0,
2008-07-06, 03:30:04,VALID,1009.55,VALID,0,VALID,94.7805,VALID,0,VALID,22.194,VALID,80,VALID,0,
2008-07-06, 03:31:04,VALID,1009.57,VALID,0,VALID,94.7271,VALID,0,VALID,22.1745,VALID,80,VALID,0,
2008-07-06, 03:32:04,VALID,1009.6,VALID,0,VALID,94.7195,VALID,0,VALID,22.155,VALID,80,VALID,0,
2008-07-06, 03:33:04,VALID,1009.59,VALID,0,VALID,94.75,VALID,0,VALID,22.155,VALID,80,VALID,0,
2008-07-06, 03:34:04,VALID,1009.61,VALID,0,VALID,94.7195,VALID,0,VALID,22.1355,VALID,80,VALID,0,
2008-07-06, 03:35:04,VALID,1009.6,VALID,0,VALID,94.7042,VALID,0.105969,VALID,22.0966,VALID,80,VALID,0,
2008-07-06, 03:36:04,VALID,1009.61,VALID,0,VALID,94.7271,VALID,0,VALID,22.0771,VALID,80,VALID,0,
2008-07-06, 03:37:04,VALID,1009.66,VALID,0,VALID,94.7119,VALID,0.105969,VALID,22.0771,VALID,80,VALID,0,
2008-07-06, 03:38:04,VALID,1009.64,VALID,0,VALID,94.7119,VALID,0,VALID,22.0382,VALID,80,VALID,0.217578,
2008-07-06, 03:39:04,VALID,1009.67,VALID,0,VALID,94.7957,VALID,0.105969,VALID,22.0382,VALID,80,VALID,0.298438,
2008-07-06, 03:40:04,VALID,1009.68,VALID,0,VALID,94.8186,VALID,0,VALID,22.0187,VALID,51,VALID,0.328906,
2008-07-06, 03:41:04,VALID,1009.68,VALID,0,VALID,94.7729,VALID,0,VALID,21.9797,VALID,48,VALID,0.315234,
2008-07-06, 03:42:04,VALID,1009.74,VALID,0,VALID,94.8262,VALID,0.105969,VALID,21.9603,VALID,48,VALID,0.272266,
2008-07-06, 03:43:04,VALID,1009.74,VALID,0,VALID,94.933,VALID,0,VALID,21.9797,VALID,48,VALID,0.241016,
2008-07-06, 03:44:04,VALID,1009.78,VALID,0,VALID,94.994,VALID,0.105969,VALID,21.9992,VALID,48,VALID,0.254297,
2008-07-06, 03:45:04,VALID,1009.77,VALID,0,VALID,95.0093,VALID,0,VALID,21.9781,VALID,48,VALID,0.133984,
2008-07-06, 03:46:04,VALID,1009.77,VALID,0,VALID,95.0474,VALID,0,VALID,22.0187,VALID,48,VALID,0,
2008-07-06, 03:47:04,VALID,1009.77,VALID,0,VALID,95.055,VALID,0,VALID,22.0187,VALID,48,VALID,0.00195313,
2008-07-06, 03:48:04,VALID,1009.76,VALID,0,VALID,95.0016,VALID,0,VALID,21.9797,VALID,48,VALID,0.183984,
2008-07-06, 03:49:04,VALID,1009.71,VALID,0,VALID,94.8644,VALID,0,VALID,21.9018,VALID,48,VALID,0.380078,
2008-07-06, 03:50:04,VALID,1009.71,VALID,0,VALID,94.7195,VALID,0.105969,VALID,21.8629,VALID,89,VALID,0.450391,
2008-07-06, 03:51:04,VALID,1009.71,VALID,0,VALID,94.75,VALID,0,VALID,21.8223,VALID,96,VALID,0.450781,